Home   Weather   Winchester   Past weeks

Flag for United Kingdom Past Weather in Winchester, England, United Kingdom — Yesterday and Last 2 Weeks

Now
30 °F

Clear.


Feels Like: 24 °F
Forecast: 42 / 55 °F
Wind: 6 mph from West

Location: Middle Wallop

Current Time: Apr 27, 2017 at 2:55:10 am

Latest Report: Apr 27, 2017 at 1:50 am


Visibility: N/A

Pressure: 30.15 "Hg

Humidity: 93%

Dew Point: 28 °F

Location of WinchesterLocation

Past Weather in Winchester — Graph

°F

Winchester Temperature Yesterday

Maximum temperature yesterday: 50 °F (at 1:50 pm)
Minimum temperature yesterday: 32 °F (at 1:50 am)
Average temperature yesterday: 41 °F

High & Low Weather Summary for the Past Weeks

 TemperatureHumidityPressure
High61 °F (Apr 22, 4:50 pm)100% (Apr 13, 5:50 am)30.63 "Hg (Apr 13, 5:50 am)
Low32 °F (Apr 25, 3:50 am)25% (Apr 25, 1:50 pm)29.92 "Hg (Apr 24, 3:50 pm)
Average48 °F67%30.23 "Hg
* Reported Apr 12 12:50 am — Apr 27 12:50 am, Winchester, Weather by CustomWeather, © 2017

Note: Actual official high and low records may vary slightly from our data, if they occured in-between our weather recording intervals... More about our weather records

Advertising

Winchester Weather History for the Previous 24 Hours

Scroll right to see more
 ConditionsComfort  
Time TempWeatherWind HumidityBarometerVisibility
12:50 am
Thu, Apr 27
37 °FClear.3 mph81%30.15 "Hg10 mi
11:50 pm
Wed, Apr 26
39 °FClear.6 mph75%30.15 "Hg10 mi
10:50 pm39 °FClear.6 mph75%30.15 "Hg10 mi
9:50 pm41 °FClear.5 mph70%30.12 "Hg10 mi
8:50 pm43 °FSprinkles. Partly cloudy.8 mph66%30.12 "HgN/A
7:50 pm43 °FScattered clouds.5 mph66%30.12 "HgN/A
6:50 pm43 °FScattered clouds.12 mph66%30.09 "HgN/A
5:50 pm48 °FScattered clouds.9 mph46%30.09 "HgN/A
4:50 pm45 °FScattered showers. Passing clouds.13 mph53%30.09 "HgN/A
3:50 pm50 °FScattered clouds.15 mph40%30.07 "HgN/A
2:50 pm48 °FSunny.17 mph40%30.07 "Hg10 mi
1:50 pm50 °FSunny.14 mph40%30.07 "Hg10 mi
12:50 pm46 °FScattered clouds.12 mph50%30.07 "HgN/A
11:50 am45 °FBroken clouds.13 mph53%30.07 "HgN/A
10:50 am45 °FBroken clouds.12 mph57%30.07 "HgN/A
9:50 am41 °FBroken clouds.12 mph70%30.07 "HgN/A
8:50 am41 °FPartly sunny.12 mph70%30.07 "HgN/A
7:50 am39 °FPartly sunny.8 mph75%30.07 "HgN/A
6:50 am34 °FPartly sunny.6 mph93%30.04 "HgN/A
5:50 am34 °FSunny.7 mph87%30.04 "HgN/A
4:50 am36 °FPassing clouds.5 mph81%30.01 "HgN/A
3:50 am36 °FPassing clouds.10 mph87%30.01 "HgN/A
2:50 am36 °FPassing clouds.7 mph87%30.01 "HgN/A
Weather by CustomWeather, © 2017

See weather overviewHow to use our weather pages